Date String (YYYY-MM-DD hh:mm:ss) UTC,Instrument flags,Ambient pressure (hPa),Sample flow (lpm),Bypass flow (lpm),Sample temperature (°C),Ambient temperature (°C),ASC tube jacket temperature (°C),LED temperature (°C),Box temperature (°C),Sample RH (%),Span deviation,Mass concentration (μg/m³),Mass concentration (μg/m³),Mass concentration (μg/m³)
DateTimeUTC,F1_M11,P_M11,Q1_M11,Q2_M11,T1_M11,T2_M11,T3_M11,T4_M11,T5_M11,U1_M11,ZSPAN_M11,X0_M11,X2_M11,X1_M11
2021-11-10 01:00:00,,0823.0,5.00,0.00,28.8,27.9,00.0,37.8,30.5,14.6,-000.8,0043.31,0017.18,0013.82
2021-11-10 01:01:00,,0822.9,5.00,0.00,28.8,27.9,00.0,37.8,30.5,14.6,-000.3,0042.93,0017.18,0013.81
2021-11-10 01:02:00,,0822.9,5.00,0.00,28.8,27.9,00.0,37.8,30.5,14.6,-000.2,0042.59,0017.08,0013.79
2021-11-10 01:03:00,,0822.9,4.99,0.00,28.8,27.9,00.0,37.8,30.5,14.6,-000.3,0041.95,0016.94,0013.72
2021-11-10 01:04:00,,0822.9,4.99,0.00,28.8,27.9,00.0,37.8,30.5,14.6,-000.1,0043.22,0016.86,0013.63
2021-11-10 01:05:00,,0823.0,5.00,0.00,28.8,27.8,00.0,37.8,30.5,14.6,-000.1,0045.26,0016.84,0013.55
2021-11-10 01:06:00,,0823.0,5.00,0.00,28.8,27.8,00.0,37.8,30.5,14.6,-000.0,0046.25,0016.82,0013.49
2021-11-10 01:07:00,,0822.9,4.99,0.00,28.8,27.8,00.0,37.8,30.5,14.6,-000.2,0047.50,0016.82,0013.42
2021-11-10 01:08:00,,0822.9,5.00,0.00,28.8,27.9,00.0,37.8,30.5,14.6,-000.5,0047.95,0016.78,0013.34
2021-11-10 01:09:00,,0823.0,4.98,0.00,28.8,27.9,00.0,37.8,30.5,14.6,-000.4,0047.65,0016.67,0013.28
2021-11-10 01:10:00,,0823.0,5.00,0.00,28.8,27.9,00.0,37.8,30.6,14.6,-000.4,0048.22,0016.62,0013.24
2021-11-10 01:11:00,,0822.9,5.01,0.00,28.8,27.9,00.0,37.8,30.5,14.6,-000.3,0048.13,0016.55,0013.18
2021-11-10 01:12:00,,0822.9,4.99,0.00,28.8,27.9,00.0,37.8,30.5,14.6,-000.8,0048.15,0016.53,0013.14
2021-11-10 01:13:00,,0822.9,5.01,0.00,28.8,27.9,00.0,37.8,30.6,14.6,-000.7,0047.67,0016.43,0013.05
2021-11-10 01:14:00,,0822.9,5.00,0.00,28.8,27.9,00.0,37.8,30.6,14.6,-000.8,0047.76,0016.39,0012.98
2021-11-10 01:15:00,,0822.9,4.99,0.00,28.8,27.9,00.0,37.8,30.6,14.6,-001.0,0046.95,0016.33,0012.92
2021-11-10 01:16:00,,0822.8,5.00,0.00,28.8,27.9,00.0,37.8,30.5,14.6,-001.1,0044.98,0016.24,0012.87
2021-11-10 01:17:00,,0822.9,5.01,0.00,28.8,27.9,00.0,37.8,30.5,14.6,-001.2,0043.61,0016.20,0012.78
2021-11-10 01:18:00,,0822.8,5.01,0.00,28.8,27.9,00.0,37.8,30.6,14.6,-001.1,0041.82,0016.12,0012.72
2021-11-10 01:19:00,,0822.8,4.99,0.00,28.8,27.9,00.0,37.8,30.6,14.6,-000.8,0041.32,0016.13,0012.69
2021-11-10 01:20:00,,0822.8,5.00,0.00,28.8,27.9,00.0,37.8,30.5,14.6,-000.7,0041.76,0016.22,0012.67
2021-11-10 01:21:00,,0822.8,5.00,0.00,28.8,27.9,00.0,37.8,30.6,14.7,-000.9,0041.28,0016.10,0012.59
2021-11-10 01:22:00,,0822.8,4.99,0.00,28.8,27.9,00.0,37.8,30.6,14.7,-000.8,0041.51,0016.04,0012.55
2021-11-10 01:23:00,,0822.7,5.01,0.00,28.8,27.9,00.0,37.8,30.6,14.7,-000.6,0041.76,0015.99,0012.55
2021-11-10 01:24:00,,0822.7,5.00,0.00,28.8,27.9,00.0,37.8,30.6,14.7,-000.6,0041.74,0016.00,0012.57
2021-11-10 01:25:00,,0822.8,5.00,0.00,28.8,27.9,00.0,37.8,30.6,14.7,-000.5,0041.10,0015.93,0012.57
2021-11-10 01:26:00,,0822.8,5.01,0.00,28.8,27.9,00.0,37.8,30.6,14.7,-000.4,0040.43,0015.90,0012.58
2021-11-10 01:27:00,,0822.7,5.00,0.00,28.8,27.9,00.0,37.8,30.5,14.6,-000.6,0039.76,0015.84,0012.60
2021-11-10 01:28:00,,0822.7,4.99,0.00,28.8,27.9,00.0,37.8,30.5,14.6,-000.9,0039.43,0015.82,0012.62
2021-11-10 01:29:00,,0822.7,5.00,0.00,28.8,27.8,00.0,37.8,30.5,14.6,-001.0,0039.11,0015.79,0012.64
2021-11-10 01:30:00,,0822.7,5.01,0.00,28.8,27.8,00.0,37.8,30.5,14.6,-001.3,0039.41,0015.78,0012.64
2021-11-10 01:31:00,,0822.7,5.00,0.00,28.8,27.8,00.0,37.8,30.5,14.6,-001.4,0039.35,0015.70,0012.62
2021-11-10 01:32:00,,0822.7,5.00,0.00,28.8,27.8,00.0,37.8,30.5,14.6,-000.9,0040.82,0015.72,0012.66
2021-11-10 01:33:00,,0822.8,5.00,0.00,28.8,27.8,00.0,37.8,30.5,14.6,-000.8,0041.32,0015.72,0012.66
2021-11-10 01:34:00,,0822.8,5.00,0.00,28.8,27.8,00.0,37.8,30.5,14.6,-000.7,0040.26,0015.74,0012.66
2021-11-10 01:35:00,,0822.7,5.01,0.00,28.7,27.8,00.0,37.8,30.5,14.6,-000.6,0040.21,0015.70,0012.69
2021-11-10 01:36:00,,0822.7,5.01,0.00,28.7,27.8,00.0,37.8,30.5,14.6,-000.2,0039.00,0015.71,0012.72
2021-11-10 01:37:00,,0822.7,5.00,0.00,28.7,27.8,00.0,37.8,30.5,14.6,-000.1,0038.75,0015.75,0012.77
2021-11-10 01:38:00,,0822.6,4.99,0.00,28.7,27.8,00.0,37.8,30.5,14.6,0000.1,0039.90,0015.83,0012.81
2021-11-10 01:39:00,,0822.7,4.99,0.00,28.7,27.8,00.0,37.8,30.4,14.6,0000.4,0040.85,0015.83,0012.86
2021-11-10 01:40:00,,0822.7,5.01,0.00,28.7,27.8,00.0,37.8,30.4,14.6,0000.4,0042.12,0015.77,0012.89
2021-11-10 01:41:00,,0822.6,4.99,0.00,28.7,27.7,00.0,37.8,30.4,14.6,0000.2,0042.26,0015.70,0012.94
2021-11-10 01:42:00,,0822.6,5.01,0.00,28.7,27.7,00.0,37.7,30.4,14.6,0000.1,0042.66,0015.69,0013.01
2021-11-10 01:43:00,,0822.7,5.01,0.00,28.7,27.7,00.0,37.7,30.4,14.7,-000.2,0041.36,0015.77,0013.10
2021-11-10 01:44:00,,0822.7,5.00,0.00,28.7,27.7,00.0,37.7,30.4,14.7,-000.6,0040.85,0015.80,0013.20
2021-11-10 01:45:00,,0822.7,5.00,0.00,28.7,27.8,00.0,37.7,30.4,14.6,-000.7,0040.71,0015.82,0013.28
2021-11-10 01:46:00,,0822.7,5.00,0.00,28.7,27.7,00.0,37.7,30.4,14.6,-000.8,0040.56,0015.85,0013.31
2021-11-10 01:47:00,,0822.6,5.01,0.00,28.7,27.7,00.0,37.7,30.4,14.6,-001.1,0042.87,0016.02,0013.37
2021-11-10 01:48:00,,0822.6,5.00,0.00,28.7,27.8,00.0,37.7,30.4,14.7,-001.1,0043.30,0016.12,0013.44
2021-11-10 01:49:00,,0822.7,4.99,0.00,28.7,27.8,00.0,37.7,30.4,14.7,-000.8,0041.38,0016.09,0013.47
2021-11-10 01:50:00,,0822.7,5.00,0.00,28.7,27.8,00.0,37.7,30.4,14.6,-000.9,0039.26,0016.24,0013.53
2021-11-10 01:51:00,,0822.6,5.00,0.00,28.7,27.7,00.0,37.7,30.4,14.7,-001.0,0038.60,0016.40,0013.59
2021-11-10 01:52:00,,0822.7,5.00,0.00,28.7,27.7,00.0,37.7,30.4,14.7,-000.7,0038.12,0016.58,0013.68
2021-11-10 01:53:00,,0822.7,5.00,0.00,28.7,27.7,00.0,37.7,30.4,14.7,-000.5,0037.72,0016.62,0013.69
2021-11-10 01:54:00,,0822.6,5.00,0.00,28.6,27.7,00.0,37.7,30.3,14.7,-000.5,0037.74,0016.64,0013.67
2021-11-10 01:55:00,,0822.7,5.01,0.00,28.6,27.7,00.0,37.7,30.3,14.8,-000.4,0037.43,0016.70,0013.68
2021-11-10 01:56:00,,0822.6,5.02,0.00,28.6,27.7,00.0,37.7,30.3,14.8,-000.3,0036.48,0016.66,0013.69
2021-11-10 01:57:00,,0822.8,4.99,0.00,28.6,27.7,00.0,37.7,30.3,14.8,-000.4,0036.18,0016.73,0013.75
2021-11-10 01:58:00,,0822.7,5.00,0.00,28.6,27.7,00.0,37.7,30.3,14.8,-000.1,0035.15,0016.73,0013.76
2021-11-10 01:59:00,,0822.7,5.01,0.00,28.6,27.6,00.0,37.7,30.3,14.8,-000.1,0035.90,0016.74,0013.78
